Regional Weather Roundup
Issued by NWS Sterling, VA

Home | Current Version | Previous Version | Text Only | Print | Product List | Glossary Off
Versions: 1 2 3 4 5 6 7 8 9 10 11 12 13 14 15 16 17 18 19 20 21 22 23 24 25 26 27 28 29 30 31 32 33 34 35 36 37 38 39 40 41 42 43 44 45 46 47 48 49 50

658
ASUS41 KLWX 251610
RWRLWX

REGIONAL WEATHER ROUNDUP
NATIONAL WEATHER SERVICE BALTIMORE MD/WASHINGTON DC
1200 PM EDT WED MAY 25 2016

Note: "FAIR" indicates few or no clouds below 12,000 feet
with no significant weather and/or obstructions to visibility.
 TC=TEMPERATURE CELSIUS

 * =Non NWS site. Station does not report precipitation (e.g. rain,
    snow, etc.), thunder, or fog.

DCZ001-MDZ009-015-VAZ040>042-051-053>054-251700-
WASHINGTON METRO

CITY           SKY/WX    TMP DP  RH WIND       PRES   REMARKS
WASHINGTON NAT CLOUDY    83  54  36 E3        30.15S
DULLES         PTSUNNY   83  51  33 W10       30.16S
ANDREWS AFB    MOSUNNY   82  50  33 W6        30.15S
FT BELVOIR     FAIR      83  49  30 SW8       30.15S
QUANTICO       PTSUNNY   76  60  57 S7        30.16F
COLLEGE PARK*  FAIR      81  46  30 NW5       30.14F
LEESBURG*      FAIR      82  54  36 NW5       30.18R
MANASSAS*      SUNNY     82  50  32 W7        30.16S

$$

MDZ006>007-011-014-251700-
BALTIMORE METRO

CITY           SKY/WX    TMP DP  RH WIND       PRES   REMARKS
BWI AIRPORT    PTSUNNY   83  48  29 W8        30.13S
MD SCIENCE CTR   N/A     84  44  24 MISG      30.14F
MARTIN STATE   MOSUNNY   84  52  32 SW3       30.13F
ANNAPOLIS      MOSUNNY   80  51  36 N6        30.13F
FORT MEADE*    SUNNY     82  46  28 W5        30.16S

$$

MDZ012-015-019>023-251700-
MARYLAND EASTERN SHORE

CITY           SKY/WX    TMP DP  RH WIND       PRES   REMARKS
OCEAN CITY     SUNNY     79  58  48 SE6       30.14S
SALISBURY      SUNNY     84  48  28 NW8       30.14S
BAY BRIDGE AP* MOSUNNY   82  57  42 W5        30.14S
CAMBRIDGE*     SUNNY     81  54  39 W5        30.14S
EASTON*        MOSUNNY   82  63  51 NW7       30.18S

$$

MDZ017>025-251700-
SOUTHERN MARYLAND

CITY           SKY/WX    TMP DP  RH WIND       PRES   REMARKS
PATUXENT RIVER PTSUNNY   83  54  36 N5        30.15S
ST INIGOES     SUNNY     77  61  57 SW8       30.16R
LEONARDTOWN*   SUNNY     82  52  34 SW7       30.17S

$$

MDZ003>005-251700-
NORTH CENTRAL MARYLAND

CITY           SKY/WX    TMP DP  RH WIND       PRES   REMARKS
FREDERICK*     SUNNY     81  61  50 W6        30.18S
HAGERSTOWN APT CLOUDY    79  54  41 SW9       30.17R
WESTMINSTER*   CLOUDY    81  75  83 SW6       30.16S

$$

MDZ501>502-251700-
WESTERN MARYLAND

CITY           SKY/WX    TMP DP  RH WIND       PRES   REMARKS
OAKLAND*       NOT AVBL
CUMBERLAND*    CLOUDY    79  61  53 SE3       30.21S

$$

VAZ025>031-251700-
SHENANDOAH VALLEY

CITY           SKY/WX    TMP DP  RH WIND       PRES   REMARKS
WINCHESTER*    FAIR      79  50  36 W5        30.18S
FRONT ROYAL*   FAIR      77  55  47 SW5       30.18S
LURAY*         FAIR      79  52  38 SW5       30.20S
NEW MARKET*    FAIR      78  51  39 S5        30.18F
STAUNTON*      FAIR      76  51  41 S5        30.24S
WAYNESBORO*    FAIR      76  49  38 SW6       30.23F

$$

WVZ021-048>050-054>055-251700-
EASTERN WEST VIRGINIA PANHANDLE

CITY           SKY/WX    TMP DP  RH WIND       PRES   REMARKS
MARTINSBURG    FAIR      80  50  34 CALM      30.16S
PETERSBURG*    FAIR      79  55  43 SE5       30.20F

$$

VAZ036>039-050-251700-
CENTRAL FOOTHILLS

CITY           SKY/WX    TMP DP  RH WIND       PRES   REMARKS
CHARLOTTESVILL FAIR      81  49  32 W9        30.19S
CULPEPER*      FAIR      82  53  37 SW3       30.18S
ORANGE*        FAIR      81  50  34 CALM      30.20S
GORDONSVILLE*  FAIR      80  53  38 CALM      30.18S
WARRENTON*     FAIR      83  40  22 CALM      30.17S

$$

VAZ055>057-251700-
NORTH AND CENTRAL PIEDMONT

CITY           SKY/WX    TMP DP  RH WIND       PRES   REMARKS
FREDERICKSBRG* FAIR      82  54  36 CALM      30.16S
STAFFORD*      FAIR      82  49  32 W5        30.21R

$$

NCZ024-NYZ072-PAZ021-071-VAZ022-071-251700-
OTHER REGIONAL OBSERVATIONS

CITY           SKY/WX    TMP DP  RH WIND       PRES   REMARKS
NEW YORK CITY  SUNNY     83  50  31 VRB5      30.09F
PHILADELPHIA   PTSUNNY   82  43  25 S8        30.11S
PITTSBURGH     CLOUDY    77  48  35 SW7       30.18S
ROANOKE        FAIR      78  53  41 CALM      30.25F
RICHMOND       CLOUDY    82  50  32 SW7       30.18S
RALEIGH        MOSUNNY   83  58  42 W6        30.22F

$$

ANZ530>537-251700-
MARINE OBSERVATIONS

STATION/POSITION TIME  TEMP    WIND        PRES
                       AIR SEA DIR/SP/G
                 (UTC) (F)     (DEG/KT/KT) (MB)
THOMAS PT LIGHT  1600   74 64  190/  7/  8 1021.8F
BALT KEY BRIDGE  1500   79     290/  7/ 10 1020.2F
COVE POINT       1500   68     180/  5/  5 1021.5F
LEWISETTA        1500   74 67  340/  1/  3 1021.0S
SOLOMONS ISLAND  1500   78 63  340/  3/  5   N/A
PINEY POINT      1500          320/  8/  8   N/A

$$





USA.gov is the U.S. government's official web portal to all federal, state and local government web resources and services.